Time,TemperatureF,DewpointF,PressureIn,WindDirection,WindDirectionDegrees,WindSpeedMPH,WindSpeedGustMPH,Humidity,HourlyPrecipIn,Conditions,Clouds,dailyrainin,SoftwareType,DateUTC
2013-02-05 00:01:00,46.0,39.0,29.98,SE,143,0.0,-999.0,75,-99.99,,,0.00,,2013-02-05 06:01:00,
2013-02-05 00:11:00,46.0,39.0,29.98,SE,143,0.0,-999.0,75,-99.99,,,0.00,,2013-02-05 06:11:00,
2013-02-05 00:22:00,46.0,39.0,29.97,SSE,156,0.0,-999.0,75,-99.99,,,0.00,,2013-02-05 06:22:00,
2013-02-05 00:32:00,47.0,38.0,29.97,South,181,1.0,-999.0,71,-99.99,,,0.00,,2013-02-05 06:32:00,
2013-02-05 00:42:00,47.0,38.0,29.97,South,181,1.0,-999.0,71,-99.99,,,0.00,,2013-02-05 06:42:00,
2013-02-05 00:52:00,47.0,38.0,29.97,South,181,1.0,-999.0,71,-99.99,,,0.00,,2013-02-05 06:52:00,
2013-02-05 01:01:00,48.0,39.0,29.96,SSE,166,0.0,-999.0,72,-99.99,,,0.00,,2013-02-05 07:01:00,
2013-02-05 01:11:00,48.0,39.0,29.96,SSE,166,0.0,-999.0,72,-99.99,,,0.00,,2013-02-05 07:11:00,
2013-02-05 01:22:00,47.0,39.0,29.96,SSE,166,0.0,-999.0,75,-99.99,,,0.00,,2013-02-05 07:22:00,
2013-02-05 01:32:00,47.0,39.0,29.96,SSE,166,0.0,-999.0,73,-99.99,,,0.00,,2013-02-05 07:32:00,
2013-02-05 01:41:00,47.0,39.0,29.96,SSE,166,0.0,-999.0,73,-99.99,,,0.00,,2013-02-05 07:41:00,
2013-02-05 01:51:00,49.0,39.0,29.97,WNW,303,1.0,-999.0,68,-99.99,,,0.00,,2013-02-05 07:51:00,
2013-02-05 02:01:00,49.0,39.0,29.98,WNW,303,1.0,-999.0,68,-99.99,,,0.00,,2013-02-05 08:01:00,
2013-02-05 02:11:00,49.0,39.0,29.98,WNW,303,1.0,-999.0,68,-99.99,,,0.00,,2013-02-05 08:11:00,
2013-02-05 02:21:00,49.0,39.0,29.98,WNW,303,0.0,-999.0,68,-99.99,,,0.00,,2013-02-05 08:21:00,
2013-02-05 02:31:00,48.0,40.0,29.97,WNW,303,0.0,-999.0,75,-99.99,,,0.00,,2013-02-05 08:31:00,
2013-02-05 02:41:00,48.0,40.0,29.97,WNW,303,0.0,-999.0,75,-99.99,,,0.00,,2013-02-05 08:41:00,
2013-02-05 02:52:00,48.0,40.0,29.97,WNW,303,0.0,-999.0,75,-99.99,,,0.00,,2013-02-05 08:52:00,
2013-02-05 03:02:00,47.0,41.0,29.97,WNW,303,0.0,-999.0,79,-99.99,,,0.00,,2013-02-05 09:02:00,
2013-02-05 03:11:00,47.0,42.0,29.97,WNW,303,0.0,-999.0,82,-99.99,,,0.00,,2013-02-05 09:11:00,
2013-02-05 03:21:00,47.0,42.0,29.97,WNW,303,0.0,-999.0,82,-99.99,,,0.00,,2013-02-05 09:21:00,
2013-02-05 03:32:00,45.0,42.0,29.97,WNW,303,0.0,-999.0,89,-99.99,,,0.01,,2013-02-05 09:32:00,
2013-02-05 03:42:00,45.0,42.0,29.97,WNW,303,0.0,-999.0,89,-99.99,,,0.01,,2013-02-05 09:42:00,
2013-02-05 03:51:00,45.0,42.0,29.98,WNW,303,0.0,-999.0,90,-99.99,,,0.01,,2013-02-05 09:51:00,
2013-02-05 04:02:00,44.0,42.0,29.97,WNW,303,0.0,-999.0,92,-99.99,,,0.01,,2013-02-05 10:02:00,
2013-02-05 04:11:00,44.0,42.0,29.96,WNW,303,1.0,-999.0,93,-99.99,,,0.01,,2013-02-05 10:11:00,
2013-02-05 04:21:00,44.0,42.0,29.96,WNW,303,1.0,-999.0,93,-99.99,,,0.01,,2013-02-05 10:21:00,
2013-02-05 04:32:00,44.0,42.0,29.97,WNW,303,0.0,-999.0,94,-99.99,,,0.01,,2013-02-05 10:32:00,
2013-02-05 04:42:00,44.0,42.0,29.97,WNW,303,0.0,-999.0,94,-99.99,,,0.01,,2013-02-05 10:42:00,
2013-02-05 04:52:00,44.0,42.0,29.98,WNW,303,0.0,-999.0,94,-99.99,,,0.01,,2013-02-05 10:52:00,
2013-02-05 05:01:00,44.0,42.0,29.98,WNW,303,0.0,-999.0,94,-99.99,,,0.01,,2013-02-05 11:01:00,
2013-02-05 05:11:00,44.0,42.0,29.98,WNW,303,0.0,-999.0,94,-99.99,,,0.01,,2013-02-05 11:11:00,
2013-02-05 05:22:00,45.0,43.0,29.98,WNW,303,1.0,-999.0,94,-99.99,,,0.01,,2013-02-05 11:22:00,
2013-02-05 05:32:00,45.0,43.0,29.98,WNW,290,0.0,-999.0,93,-99.99,,,0.01,,2013-02-05 11:32:00,
2013-02-05 05:42:00,45.0,43.0,29.98,WNW,290,0.0,-999.0,93,-99.99,,,0.01,,2013-02-05 11:42:00,
2013-02-05 05:52:00,45.0,43.0,29.99,WNW,290,0.0,-999.0,93,-99.99,,,0.01,,2013-02-05 11:52:00,
2013-02-05 06:01:00,45.0,43.0,29.99,WNW,291,0.0,-999.0,94,-99.99,,,0.01,,2013-02-05 12:01:00,
2013-02-05 06:12:00,45.0,43.0,29.99,WNW,291,0.0,-999.0,94,-99.99,,,0.01,,2013-02-05 12:12:00,
2013-02-05 06:21:00,45.0,43.0,30.00,WNW,290,0.0,-999.0,94,-99.99,,,0.01,,2013-02-05 12:21:00,
2013-02-05 06:32:00,45.0,43.0,30.00,WNW,290,0.0,-999.0,94,-99.99,,,0.01,,2013-02-05 12:32:00,
2013-02-05 06:42:00,45.0,43.0,30.00,WNW,290,0.0,-999.0,94,-99.99,,,0.01,,2013-02-05 12:42:00,
2013-02-05 06:52:00,45.0,43.0,30.00,WNW,290,0.0,-999.0,94,-99.99,,,0.01,,2013-02-05 12:52:00,
2013-02-05 07:01:00,45.0,43.0,30.01,WNW,290,0.0,-999.0,94,-99.99,,,0.01,,2013-02-05 13:01:00,
2013-02-05 07:12:00,45.0,43.0,30.01,WNW,290,0.0,-999.0,94,-99.99,,,0.01,,2013-02-05 13:12:00,
2013-02-05 07:22:00,46.0,44.0,30.01,WNW,290,0.0,-999.0,94,-99.99,,,0.01,,2013-02-05 13:22:00,
2013-02-05 07:32:00,46.0,44.0,30.01,WNW,290,0.0,-999.0,94,-99.99,,,0.01,,2013-02-05 13:32:00,
2013-02-05 07:42:00,46.0,44.0,30.01,WNW,290,0.0,-999.0,94,-99.99,,,0.01,,2013-02-05 13:42:00,
2013-02-05 07:52:00,46.0,44.0,30.01,WNW,290,0.0,-999.0,94,-99.99,,,0.01,,2013-02-05 13:52:00,
2013-02-05 08:01:00,46.0,44.0,30.03,WNW,290,0.0,-999.0,93,-99.99,,,0.01,,2013-02-05 14:01:00,
2013-02-05 08:12:00,46.0,44.0,30.03,WNW,290,0.0,-999.0,93,-99.99,,,0.01,,2013-02-05 14:12:00,
2013-02-05 08:21:00,46.0,44.0,30.03,WNW,290,0.0,-999.0,93,-99.99,,,0.01,,2013-02-05 14:21:00,
2013-02-05 08:32:00,47.0,45.0,30.03,WNW,290,0.0,-999.0,93,-99.99,,,0.01,,2013-02-05 14:32:00,
2013-02-05 08:42:00,47.0,45.0,30.03,WNW,290,0.0,-999.0,93,-99.99,,,0.01,,2013-02-05 14:42:00,
2013-02-05 08:52:00,48.0,45.0,30.04,WNW,291,1.0,-999.0,91,-99.99,,,0.01,,2013-02-05 14:52:00,
2013-02-05 09:02:00,49.0,45.0,30.04,WNW,290,0.0,-999.0,86,-99.99,,,0.01,,2013-02-05 15:02:00,
2013-02-05 09:11:00,49.0,45.0,30.04,WNW,290,0.0,-999.0,86,-99.99,,,0.01,,2013-02-05 15:11:00,
2013-02-05 09:21:00,49.0,45.0,30.04,WNW,290,0.0,-999.0,85,-99.99,,,0.01,,2013-02-05 15:21:00,
2013-02-05 09:32:00,51.0,45.0,30.05,WNW,290,1.0,-999.0,80,-99.99,,,0.01,,2013-02-05 15:32:00,
2013-02-05 09:41:00,51.0,45.0,30.05,WNW,290,1.0,-999.0,80,-99.99,,,0.01,,2013-02-05 15:41:00,
2013-02-05 09:52:00,51.0,44.0,30.05,WNW,289,1.0,-999.0,78,-99.99,,,0.01,,2013-02-05 15:52:00,
2013-02-05 10:01:00,52.0,45.0,30.05,SW,222,1.0,-999.0,76,-99.99,,,0.01,,2013-02-05 16:01:00,
2013-02-05 10:11:00,52.0,45.0,30.05,SW,222,1.0,-999.0,76,-99.99,,,0.01,,2013-02-05 16:11:00,
2013-02-05 10:22:00,53.0,45.0,30.05,South,180,2.0,-999.0,75,-99.99,,,0.01,,2013-02-05 16:22:00,
2013-02-05 10:32:00,53.0,46.0,30.05,SW,220,2.0,-999.0,78,-99.99,,,0.01,,2013-02-05 16:32:00,
2013-02-05 10:42:00,53.0,46.0,30.05,SW,220,2.0,-999.0,78,-99.99,,,0.01,,2013-02-05 16:42:00,
2013-02-05 10:52:00,54.0,46.0,30.05,West,265,3.0,-999.0,74,-99.99,,,0.01,,2013-02-05 16:52:00,
2013-02-05 11:01:00,54.0,46.0,30.04,SE,137,3.0,-999.0,75,-99.99,,,0.01,,2013-02-05 17:01:00,
2013-02-05 11:11:00,54.0,46.0,30.04,SE,137,3.0,-999.0,75,-99.99,,,0.01,,2013-02-05 17:11:00,
2013-02-05 11:21:00,56.0,47.0,30.04,WSW,241,2.0,-999.0,73,-99.99,,,0.01,,2013-02-05 17:21:00,
2013-02-05 11:32:00,56.0,47.0,30.03,SW,225,4.0,-999.0,72,-99.99,,,0.01,,2013-02-05 17:32:00,
2013-02-05 11:42:00,56.0,47.0,30.03,SW,225,4.0,-999.0,72,-99.99,,,0.01,,2013-02-05 17:42:00,
2013-02-05 11:52:00,57.0,48.0,30.02,West,262,3.0,-999.0,73,-99.99,,,0.01,,2013-02-05 17:52:00,
2013-02-05 12:02:00,57.0,48.0,30.01,WNW,291,3.0,-999.0,72,-99.99,,,0.01,,2013-02-05 18:02:00,
2013-02-05 12:11:00,57.0,48.0,30.01,WNW,291,3.0,-999.0,72,-99.99,,,0.01,,2013-02-05 18:11:00,
2013-02-05 12:21:00,58.0,48.0,30.01,WSW,255,3.0,-999.0,69,-99.99,,,0.01,,2013-02-05 18:21:00,
2013-02-05 12:32:00,58.0,47.0,30.00,WSW,256,3.0,-999.0,67,-99.99,,,0.01,,2013-02-05 18:32:00,
2013-02-05 12:42:00,58.0,47.0,30.00,WSW,256,3.0,-999.0,67,-99.99,,,0.01,,2013-02-05 18:42:00,
2013-02-05 12:52:00,59.0,48.0,30.00,WSW,249,4.0,-999.0,67,-99.99,,,0.01,,2013-02-05 18:52:00,
2013-02-05 13:02:00,59.0,48.0,29.99,SE,143,4.0,-999.0,67,-99.99,,,0.01,,2013-02-05 19:02:00,
2013-02-05 13:11:00,59.0,48.0,29.99,SE,143,4.0,-999.0,67,-99.99,,,0.01,,2013-02-05 19:11:00,
2013-02-05 13:21:00,61.0,48.0,29.97,SW,218,2.0,-999.0,63,-99.99,,,0.01,,2013-02-05 19:21:00,
2013-02-05 13:32:00,62.0,48.0,29.97,WNW,302,2.0,-999.0,60,-99.99,,,0.01,,2013-02-05 19:32:00,
2013-02-05 13:42:00,62.0,48.0,29.97,WNW,302,2.0,-999.0,60,-99.99,,,0.01,,2013-02-05 19:42:00,
2013-02-05 13:52:00,62.0,46.0,29.96,West,279,4.0,-999.0,55,-99.99,,,0.01,,2013-02-05 19:52:00,
2013-02-05 14:01:00,62.0,47.0,29.96,West,276,3.0,-999.0,58,-99.99,,,0.01,,2013-02-05 20:01:00,
2013-02-05 14:11:00,62.0,47.0,29.96,West,276,3.0,-999.0,58,-99.99,,,0.01,,2013-02-05 20:11:00,
2013-02-05 14:21:00,63.0,48.0,29.95,SW,224,3.0,-999.0,57,-99.99,,,0.01,,2013-02-05 20:21:00,
2013-02-05 14:32:00,64.0,45.0,29.95,WSW,251,3.0,-999.0,50,-99.99,,,0.01,,2013-02-05 20:32:00,
2013-02-05 14:42:00,64.0,45.0,29.95,WSW,251,3.0,-999.0,50,-99.99,,,0.01,,2013-02-05 20:42:00,
2013-02-05 14:52:00,63.0,46.0,29.94,WSW,242,3.0,-999.0,54,-99.99,,,0.01,,2013-02-05 20:52:00,
2013-02-05 15:02:00,64.0,47.0,29.94,SSW,202,4.0,-999.0,53,-99.99,,,0.01,,2013-02-05 21:02:00,
2013-02-05 15:11:00,64.0,47.0,29.94,SSW,202,4.0,-999.0,53,-99.99,,,0.01,,2013-02-05 21:11:00,
2013-02-05 15:22:00,65.0,47.0,29.93,South,172,2.0,-999.0,52,-99.99,,,0.01,,2013-02-05 21:22:00,
2013-02-05 15:32:00,64.0,45.0,29.93,SSW,194,4.0,-999.0,50,-99.99,,,0.01,,2013-02-05 21:32:00,
2013-02-05 15:42:00,64.0,45.0,29.93,SSW,194,4.0,-999.0,50,-99.99,,,0.01,,2013-02-05 21:42:00,
2013-02-05 15:52:00,64.0,44.0,29.93,WNW,289,5.0,-999.0,49,-99.99,,,0.01,,2013-02-05 21:52:00,
2013-02-05 16:01:00,64.0,45.0,29.94,West,260,6.0,-999.0,50,-99.99,,,0.01,,2013-02-05 22:01:00,
2013-02-05 16:11:00,64.0,45.0,29.94,West,260,6.0,-999.0,50,-99.99,,,0.01,,2013-02-05 22:11:00,
2013-02-05 16:21:00,64.0,44.0,29.94,West,266,2.0,-999.0,48,-99.99,,,0.01,,2013-02-05 22:21:00,
2013-02-05 16:32:00,64.0,44.0,29.94,WSW,246,4.0,-999.0,49,-99.99,,,0.01,,2013-02-05 22:32:00,
2013-02-05 16:42:00,64.0,44.0,29.94,WSW,246,4.0,-999.0,49,-99.99,,,0.01,,2013-02-05 22:42:00,
2013-02-05 16:52:00,64.0,45.0,29.94,WSW,253,2.0,-999.0,51,-99.99,,,0.01,,2013-02-05 22:52:00,
2013-02-05 17:02:00,64.0,47.0,29.94,West,263,1.0,-999.0,53,-99.99,,,0.01,,2013-02-05 23:02:00,
2013-02-05 17:11:00,64.0,47.0,29.94,West,263,1.0,-999.0,53,-99.99,,,0.01,,2013-02-05 23:11:00,
2013-02-05 17:21:00,64.0,47.0,29.94,West,263,1.0,-999.0,53,-99.99,,,0.01,,2013-02-05 23:21:00,
2013-02-05 17:32:00,60.0,49.0,29.95,South,187,0.0,-999.0,66,-99.99,,,0.01,,2013-02-05 23:32:00,
2013-02-05 17:42:00,60.0,49.0,29.95,South,187,0.0,-999.0,66,-99.99,,,0.01,,2013-02-05 23:42:00,
2013-02-05 17:53:00,57.0,49.0,29.96,SSW,193,1.0,-999.0,75,-99.99,,,0.01,,2013-02-05 23:53:00,
2013-02-05 18:02:00,56.0,49.0,29.97,SSW,193,0.0,-999.0,76,-99.99,,,0.01,,2013-02-06 00:02:00,
2013-02-05 18:11:00,56.0,49.0,29.97,SSW,193,0.0,-999.0,76,-99.99,,,0.01,,2013-02-06 00:11:00,
2013-02-05 18:22:00,54.0,48.0,29.98,SSW,193,0.0,-999.0,79,-99.99,,,0.00,,2013-02-06 00:22:00,
2013-02-05 18:32:00,52.0,47.0,29.99,SSW,193,0.0,-999.0,83,-99.99,,,0.00,,2013-02-06 00:32:00,
2013-02-05 18:42:00,52.0,47.0,29.99,SSW,193,0.0,-999.0,83,-99.99,,,0.00,,2013-02-06 00:42:00,
2013-02-05 18:52:00,51.0,47.0,29.99,SSW,204,1.0,-999.0,85,-99.99,,,0.00,,2013-02-06 00:52:00,
2013-02-05 19:02:00,50.0,46.0,30.00,SSW,204,0.0,-999.0,87,-99.99,,,0.00,,2013-02-06 01:02:00,
2013-02-05 19:11:00,50.0,46.0,30.00,SSW,204,0.0,-999.0,87,-99.99,,,0.00,,2013-02-06 01:11:00,
2013-02-05 19:22:00,49.0,46.0,30.00,SSW,204,0.0,-999.0,88,-99.99,,,0.00,,2013-02-06 01:22:00,
2013-02-05 19:32:00,49.0,46.0,30.00,SSW,204,0.0,-999.0,89,-99.99,,,0.00,,2013-02-06 01:32:00,
2013-02-05 19:42:00,49.0,46.0,30.00,SSW,204,0.0,-999.0,89,-99.99,,,0.00,,2013-02-06 01:42:00,
2013-02-05 19:52:00,48.0,45.0,30.01,SSW,204,0.0,-999.0,91,-99.99,,,0.00,,2013-02-06 01:52:00,
2013-02-05 20:01:00,47.0,45.0,30.01,SSW,204,0.0,-999.0,91,-99.99,,,0.00,,2013-02-06 02:01:00,
2013-02-05 20:11:00,47.0,45.0,30.01,SSW,204,0.0,-999.0,91,-99.99,,,0.00,,2013-02-06 02:11:00,
2013-02-05 20:22:00,47.0,45.0,30.02,SSW,204,0.0,-999.0,91,-99.99,,,0.00,,2013-02-06 02:22:00,
2013-02-05 20:32:00,46.0,44.0,30.03,SSW,204,0.0,-999.0,92,-99.99,,,0.00,,2013-02-06 02:32:00,
2013-02-05 20:42:00,46.0,44.0,30.03,SSW,204,0.0,-999.0,92,-99.99,,,0.00,,2013-02-06 02:42:00,
2013-02-05 20:52:00,46.0,44.0,30.03,SSW,204,0.0,-999.0,92,-99.99,,,0.00,,2013-02-06 02:52:00,
2013-02-05 21:02:00,45.0,43.0,30.03,SSW,204,0.0,-999.0,92,-99.99,,,0.00,,2013-02-06 03:02:00,
2013-02-05 21:12:00,45.0,43.0,30.03,SSW,204,0.0,-999.0,92,-99.99,,,0.00,,2013-02-06 03:12:00,
2013-02-05 21:22:00,44.0,42.0,30.04,SSW,204,0.0,-999.0,93,-99.99,,,0.00,,2013-02-06 03:22:00,
2013-02-05 21:32:00,44.0,43.0,30.05,SSW,204,0.0,-999.0,95,-99.99,,,0.00,,2013-02-06 03:32:00,
2013-02-05 21:42:00,44.0,43.0,30.05,SSW,204,0.0,-999.0,95,-99.99,,,0.00,,2013-02-06 03:42:00,
2013-02-05 21:53:00,43.0,41.0,30.05,SSW,204,0.0,-999.0,94,-99.99,,,0.00,,2013-02-06 03:53:00,
2013-02-05 22:02:00,43.0,41.0,30.06,SSW,204,0.0,-999.0,94,-99.99,,,0.00,,2013-02-06 04:02:00,
2013-02-05 22:11:00,43.0,41.0,30.06,SSW,204,0.0,-999.0,94,-99.99,,,0.00,,2013-02-06 04:11:00,
2013-02-05 22:21:00,43.0,42.0,30.06,SSW,204,0.0,-999.0,95,-99.99,,,0.00,,2013-02-06 04:21:00,
2013-02-05 22:31:00,43.0,42.0,30.06,SSW,204,0.0,-999.0,95,-99.99,,,0.00,,2013-02-06 04:31:00,
2013-02-05 22:42:00,43.0,42.0,30.06,SSW,204,0.0,-999.0,95,-99.99,,,0.00,,2013-02-06 04:42:00,
2013-02-05 22:52:00,42.0,41.0,30.06,SSW,204,0.0,-999.0,95,-99.99,,,0.00,,2013-02-06 04:52:00,
2013-02-05 23:02:00,41.0,40.0,30.06,SSW,204,0.0,-999.0,95,-99.99,,,0.00,,2013-02-06 05:02:00,
2013-02-05 23:12:00,41.0,40.0,30.06,SSW,204,0.0,-999.0,95,-99.99,,,0.00,,2013-02-06 05:12:00,
2013-02-05 23:22:00,41.0,40.0,30.06,SSW,204,0.0,-999.0,95,-99.99,,,0.00,,2013-02-06 05:22:00,
2013-02-05 23:32:00,41.0,40.0,30.07,SSW,204,0.0,-999.0,95,-99.99,,,0.00,,2013-02-06 05:32:00,
2013-02-05 23:41:00,41.0,40.0,30.07,SSW,204,0.0,-999.0,95,-99.99,,,0.00,,2013-02-06 05:41:00,
2013-02-05 23:53:00,41.0,40.0,30.07,SSW,204,0.0,-999.0,95,-99.99,,,0.00,,2013-02-06 05:53:00,